Hauptseite
METAR-TAF:

METAR-TAF

Flughäfen :

Militärflugplatz Kleine Brogel

Peer, Belgien

Breite: 51-10N, Länge: 005-28E, Höhe: 55 m

Beobachtung

Neuester Wetterbericht von vor 21 Minuten, um 18:55 UTC
Wind 9 kt aus Ost/Nordost
Temperatur 2°C
Luftfeuchtigkeit 55%
Luftdruck 1026 hPa
Sichtweite 10 km oder mehr

METAR: EBBL 181855Z AUTO 06009KT 9999 NCD 02/M06 Q1026 BLU

Zeit: 20:16 (19:16 UTC)


TAF: fehlend

Wetterbeobachtungen und Prognosen von mehr als 4000 Flughäfen (METAR und TAF Bericht).

Die verfügbaren Stationen werden durch gelbe und rote Markierungen auf der Karte dargestellt.

Führen Sie die Maus auf sie, um den Namen der Station zu sehen.

Darauf klicken, um die Beobachtung von Wetterbeobachtungen und Prognosen zu sehen.

Um die Karte zu ändern : klicken Sie auf den grünen Tasten mit einem schwarzen Kreuz Zum Vergrößern, auf den grünen Button mit einem Gedankenstrich zu verkleinern, oder auf die grünen Pfeile für benachbarte Karten.


METAR-TAF: